Presure
173 200 250 257 276 341 326 321 291 319 311 321 337 417 181 334 288 247 143 224 221 211 218 226 177 162 193 137 173 159 166 112 108 172 104 113 123 111 120 126 124 130 171
254 219 233 229 265 277 338 342 310 299 305 318 331 341 359 405 319 238 242 225 156 194 204 218 200 173 158 163 95 142 99 168 177 150 138 111 136 150 116 138 123 156 170
232 248 234 244 254 267 358 384 338 313 303 319 318 325 253 256 425 348 129 212 224 201 201 216 214 114 175 166 168 163 95 107 164 189 110 113 160 167 127 115 121 118 113
193 247 237 228 230 255 281 390 371 326 317 313 314 317 332 344 358 290 241 222 225 176 154 209 218 181 172 179 191 106 121 151 105 157 110 108 142 170 114 113 111 125 128
174 253 203 222 252 252 269 304 347 319 316 314 293 307 320 336 352 373 371 235 178 232 202 198 213 174 183 178 99 179 159 124 89 105 170 120 102 117 121 145 121 124 170
170 238 268 221 244 226 261 283 362 323 308 300 302 296 306 319 339 352 378 209 220 168 198 150 211 181 182 181 179 195 191 142 101 139 151 163 144 104 157 113 116 170 134
182 158 154 226 271 250 249 275 295 336 299 291 303 293 294 308 316 337 362 368 194 207 184 200 211 188 180 192 184 174 119 174 161 141 140 147 145 131 160 125 164 145 175
250 143 224 235 220 251 263 267 278 341 306 286 290 289 289 294 298 329 316 377 223 212 195 218 172 194 178 185 188 179 181 169 171 169 171 106 171 89 168 173 167 124 168
180 189 210 193 275 253 250 256 284 335 322 295 281 288 299 304 311 329 361 363 230 220 232 214 191 211 191 180 186 182 165 138 123 172 117 173 99 181 137 105 116 109 124
219 221 231 231 263 251 252 260 279 311 328 323 288 303 330 438 459 417 394 327 247 231 241 225 214 208 153 183 184 185 182 174 101 171 172 128 107 89 167 153 147 149 144
222 223 145 210 226 247 244 273 277 279 338 305 291 337 412 487 500 507 505 251 363 240 244 216 208 213 216 146 198 185 184 165 150 189 173 176 155 78 149 161 137 151 99
242 266 238 238 183 222 258 241 266 295 341 311 308 361 482 515 591 566 540 503 395 252 255 213 203 217 197 171 191 194 184 183 181 173 183 176 109 176 102 166 157 165 119
220 184 213 175 232 230 255 244 265 301 345 312 330 400 473 557 544 545 503 509 403 362 256 228 209 218 212 165 205 169 133 184 191 189 128 119 178 172 175 148 152 162 148
224 208 215 193 235 245 251 284 263 297 346 312 346 491 471 496 535 526 471 467 448 405 237 247 257 225 173 194 203 142 209 187 170 185 182 153 179 171 89 106 127 124 143
220 228 247 244 246 233 227 293 261 303 344 312 347 487 459 458 543 521 469 446 447 413 397 252 237 227 165 213 149 207 195 200 143 158 177 186 155 176 136 170 163 138 148
230 242 248 249 234 213 254 285 262 310 337 309 348 463 459 458 494 522 515 466 443 421 396 254 239 231 207 169 178 161 190 192 168 193 178 132 181 183 176 175 166 177 182
224 232 257 217 254 253 219 254 264 301 339 307 354 471 471 474 468 518 498 537 459 459 392 290 239 207 233 169 180 190 205 99 167 189 192 182 182 89 183 176 154 166 170
166 176 246 245 233 222 222 251 271 294 339 309 351 442 448 459 491 486 478 487 503 477 386 333 261 231 227 179 186 216 168 166 197 192 82 193 116 171 183 184 140 154 157
241 247 245 251 221 234 231 242 290 288 341 324 343 426 434 448 520 492 513 495 497 446 383 391 268 228 219 225 217 173 205 178 149 191 166 183 198 180 174 103 188 175 179
151 249 170 258 199 253 232 231 285 282 345 328 338 404 419 442 564 517 517 475 464 466 388 389 258 235 228 200 221 205 170 212 198 106 185 191 199 155 179 179 174 97 163
151 190 246 184 166 249 248 245 251 281 343 329 326 383 418 424 493 550 525 461 444 408 377 389 248 236 217 214 235 200 171 153 182 191 176 154 169 192 176 174 162 151 186
238 238 236 147 262 239 229 269 245 310 320 337 325 348 414 411 476 559 544 427 434 396 373 397 379 236 225 217 223 211 173 177 161 192 190 181 182 186 186 183 135 182 179
174 175 254 249 260 209 250 263 259 312 340 332 324 340 414 407 439 525 572 420 399 370 377 402 408 438 230 210 249 213 193 203 136 185 192 151 173 145 178 122 179 170 152
255 242 217 162 202 251 251 255 246 310 345 331 308 331 408 407 422 517 566 374 356 372 382 400 405 373 257 224 217 232 193 172 201 199 184 189 189 169 158 154 181 121 116
160 257 245 191 259 240 249 265 247 357 362 328 305 328 350 406 412 466 563 380 353 360 372 401 392 411 248 227 210 207 208 147 182 201 188 180 184 192 170 160 169 165 191
265 258 248 249 201 241 258 276 259 301 358 333 295 322 333 408 401 423 477 386 356 350 365 392 405 456 240 224 174 203 201 199 132 169 189 187 154 173 157 152 137 140 160
Wind_Speed
70 59 99 91 94 56 56 39 32 25 15 10 7 21 76 89 112 126 88 113 111 114 108 108 110 109 104 86 104 100 103 60 57 87 54 52 49 50 49 46 45 42 54
94 83 84 95 85 90 60 38 31 26 20 14 13 8 10 41 94 127 130 116 94 103 113 111 120 113 105 108 54 86 53 98 98 77 72 56 60 69 53 51 45 56 56
85 90 98 93 87 88 61 38 36 26 22 21 16 11 41 47 31 98 76 116 123 117 117 116 123 66 115 114 110 106 52 60 92 92 55 54 76 78 50 49 46 45 43
60 86 93 97 92 84 93 48 35 29 25 20 18 19 19 18 25 93 135 131 124 107 102 120 120 125 119 122 115 65 63 92 58 88 54 56 70 82 50 51 47 48 49
56 86 65 94 84 86 85 93 42 36 29 28 19 23 24 23 26 25 51 137 97 133 126 122 127 123 129 126 66 120 105 71 45 57 91 60 53 54 57 64 50 47 57
56 90 83 95 93 89 86 87 45 45 37 33 32 29 31 30 31 32 34 125 131 109 121 107 133 129 131 131 124 117 119 90 61 75 79 85 71 49 76 49 47 63 47
64 60 60 96 80 88 87 88 79 43 42 40 40 41 38 42 36 43 43 48 126 132 117 129 138 136 132 137 128 123 76 109 97 84 79 74 70 66 68 58 62 59 54
89 47 93 94 86 91 85 91 96 49 50 46 45 47 49 53 50 56 74 51 141 138 127 143 116 143 129 137 134 125 125 116 110 99 100 56 93 47 83 83 69 51 61
58 72 74 55 89 91 88 83 96 67 51 50 52 55 65 67 70 73 72 63 147 144 145 144 123 148 144 134 137 129 113 94 80 105 63 102 45 97 58 47 47 41 47
86 87 94 93 88 97 90 86 93 81 54 54 62 72 79 72 71 74 80 83 158 156 152 153 146 144 103 129 135 135 132 125 71 106 103 72 56 48 78 74 56 50 51
96 89 47 83 99 98 98 93 95 92 62 63 69 78 79 61 61 63 69 113 90 159 158 141 139 146 149 96 143 139 138 121 102 121 108 105 86 30 71 72 66 54 41
99 94 99 98 69 89 96 99 98 111 72 71 77 84 58 54 38 40 52 70 86 165 166 141 136 154 132 107 134 143 139 135 128 98 115 104 58 96 56 76 70 73 59
100 73 78 75 88 97 97 103 101 114 81 79 87 88 53 36 30 34 47 56 93 109 169 145 135 150 149 100 141 99 56 132 132 120 76 69 106 92 93 72 63 68 62
102 90 82 76 97 97 103 104 102 113 85 84 90 54 48 39 25 32 55 61 82 98 151 160 166 148 115 120 136 87 144 128 103 120 112 83 107 94 50 60 62 52 62
101 102 102 98 99 88 87 111 104 119 88 86 91 50 48 41 25 30 60 73 81 102 107 168 156 149 111 146 86 141 131 138 89 99 105 120 92 101 62 86 81 62 54
101 102 102 101 87 66 103 106 105 120 90 86 93 58 48 38 27 28 39 71 88 104 110 171 160 150 130 112 117 96 127 118 113 129 115 79 109 109 101 97 81 87 87
98 102 99 84 95 96 75 100 103 114 92 86 94 52 42 33 25 25 36 41 85 92 110 158 165 123 160 103 117 109 137 37 105 128 128 118 112 47 107 96 55 73 68
52 63 95 100 84 73 72 99 103 111 93 85 93 59 47 40 25 22 36 47 60 83 110 122 173 160 156 112 120 148 98 92 133 127 28 123 66 87 108 103 49 67 63
102 102 100 101 77 82 76 92 107 107 94 89 90 65 53 44 24 24 31 45 58 88 108 106 168 165 149 146 140 107 135 106 64 123 101 117 118 105 88 35 99 85 85
62 103 48 102 51 99 82 74 106 104 92 88 88 73 55 48 21 24 31 51 62 75 106 107 171 167 162 123 145 132 103 140 126 35 117 117 118 65 96 97 91 49 69
64 68 101 65 54 94 93 84 89 100 91 86 85 78 55 48 35 16 30 53 64 91 103 100 165 164 154 134 156 121 104 71 99 117 95 78 83 110 92 85 66 54 90
103 103 96 41 100 86 77 102 77 101 93 82 80 84 52 47 35 10 23 48 59 91 96 91 105 161 160 147 151 138 105 104 75 116 117 107 106 110 106 101 56 82 75
53 47 101 99 100 70 93 96 90 101 76 76 75 78 47 44 35 15 14 51 74 83 85 83 89 99 160 128 161 145 117 134 63 109 122 74 88 63 91 47 84 62 45
94 98 77 57 54 94 92 88 72 98 69 69 67 70 47 39 31 13 10 67 68 71 74 74 85 126 162 157 137 152 118 99 136 133 106 114 117 83 74 53 75 69 53
33 91 93 66 94 80 90 96 75 86 66 62 61 64 72 30 25 13 9 64 67 65 64 66 82 104 157 149 130 137 143 83 107 131 118 104 107 114 69 52 61 58 93
84 87 88 88 55 80 93 94 77 84 64 57 54 59 65 21 17 8 7 57 64 62 62 62 78 76 149 152 103 141 143 132 79 99 118 116 73 79 66 63 61 55 54
Wind_Direction
339 354 353 354 3 348 347 337 337 333 310 309 336 270 216 222 211 206 222 209 206 204 201 202 208 219 207 226 215 231 226 224 229 227 231 233 230 236 236 237 241 245 251
348 346 350 356 360 3 342 324 322 320 322 324 331 297 269 240 221 207 204 206 215 206 202 200 201 209 221 222 222 221 227 225 228 225 232 236 234 238 236 238 241 247 249
354 348 346 353 356 358 341 319 310 310 314 318 300 298 220 227 251 222 231 213 202 207 207 201 202 215 211 222 222 226 229 223 228 224 229 236 234 237 232 239 242 247 254
350 346 344 351 353 355 358 329 302 308 309 317 311 293 297 275 246 207 204 208 206 206 212 200 200 206 215 212 208 215 226 229 226 228 232 239 236 234 236 242 245 245 246
348 349 354 349 353 353 356 359 330 325 318 314 312 309 291 287 280 270 226 205 208 197 206 205 198 217 209 214 216 217 225 226 223 227 224 227 243 232 244 242 243 246 247
343 348 351 350 346 353 352 355 334 333 330 328 321 315 307 291 275 271 254 214 206 209 210 220 199 210 210 215 216 214 215 220 225 230 227 228 236 242 240 242 245 243 252
350 348 348 345 351 349 348 352 350 324 331 326 316 313 302 296 276 268 257 236 212 207 211 208 198 207 213 210 215 221 224 225 219 226 231 230 229 236 243 243 246 245 249
345 347 346 344 354 347 347 351 351 327 333 321 314 306 296 287 262 263 224 250 209 210 212 200 213 203 217 213 214 219 219 224 227 228 230 230 232 229 239 239 246 246 247
345 346 345 340 349 347 346 348 349 341 327 318 308 303 291 280 273 265 254 238 207 208 202 207 210 201 208 216 214 217 221 219 225 227 217 231 214 232 234 240 245 245 247
341 344 346 345 346 342 344 344 346 343 331 320 314 306 292 287 269 252 241 222 203 206 202 205 206 204 227 209 215 216 218 225 213 227 230 223 218 213 236 232 240 239 246
347 344 346 343 340 343 345 344 344 344 332 326 319 311 312 287 272 256 242 210 215 204 203 206 207 206 202 219 209 214 218 220 225 221 227 229 232 244 225 232 231 240 234
343 337 348 345 329 349 341 344 342 344 334 329 325 327 307 297 269 252 242 229 217 204 202 208 208 206 210 220 212 211 217 219 223 226 224 229 232 236 226 235 242 244 242
344 336 343 340 342 342 344 342 340 344 333 333 331 333 315 297 271 239 224 220 212 205 202 207 211 210 207 222 205 223 226 221 220 221 221 227 233 237 238 233 236 244 244
339 345 341 344 344 342 342 344 340 344 337 337 336 322 320 320 272 238 212 208 209 205 208 202 199 206 216 213 205 218 210 221 217 222 224 222 231 235 232 227 235 231 237
337 342 340 342 342 345 346 344 340 343 339 341 341 326 327 323 277 241 211 205 205 202 199 204 205 206 222 207 216 209 215 215 217 222 226 225 230 233 223 240 240 223 244
336 338 339 341 344 349 344 345 341 344 342 344 344 334 325 319 307 248 224 212 205 202 198 203 204 207 209 219 219 220 211 217 213 216 224 225 229 230 235 238 240 245 244
335 336 339 335 339 341 351 344 340 344 342 344 348 340 336 316 294 257 232 225 208 206 196 202 203 207 205 217 218 216 211 216 215 217 218 225 227 230 232 237 232 238 248
338 343 339 339 338 341 352 342 345 344 342 344 349 344 340 334 286 258 228 219 210 206 195 199 202 204 206 214 213 206 224 222 214 218 211 221 228 230 232 234 218 231 245
332 335 338 339 337 340 349 343 348 344 342 346 347 346 345 339 294 245 223 217 205 197 195 194 199 202 207 204 205 215 208 220 226 218 217 225 224 230 232 230 237 242 244
322 334 338 338 341 340 347 352 346 343 345 346 347 349 347 346 304 236 218 206 202 197 194 193 197 201 205 209 207 211 220 207 214 213 217 222 222 229 231 234 236 253 241
326 335 334 338 335 340 342 347 346 343 345 345 347 351 346 350 341 244 209 204 200 193 193 193 199 201 205 205 203 211 216 208 219 219 225 211 228 227 225 232 233 228 241
325 330 330 345 334 340 343 341 349 345 343 343 347 353 345 350 344 293 213 197 191 190 193 193 193 202 203 206 208 211 207 216 216 219 217 224 224 227 230 232 209 237 240
325 337 327 332 333 333 338 340 342 342 344 344 347 353 344 347 352 329 214 188 185 189 194 194 190 185 205 202 198 208 211 213 189 219 216 212 227 210 230 222 231 230 218
318 322 326 326 335 333 336 340 348 341 345 344 347 353 348 343 355 336 215 186 193 193 195 195 191 192 198 203 201 199 209 213 212 215 220 220 223 228 226 225 235 254 243
336 318 323 334 328 333 335 336 343 343 343 345 348 354 358 340 352 6 193 185 193 194 193 198 190 193 197 200 202 207 208 206 215 215 218 223 226 226 227 226 230 227 237
312 315 320 325 331 332 332 332 344 343 342 344 347 354 359 337 346 10 150 184 190 192 192 196 191 197 197 198 195 205 209 209 221 216 215 222 221 224 211 214 214 218 226